Terminal Aerodrome Forecast
Issued by NWS

Home | Current Version | Previous Version | Text Only | Print | Product List | Glossary On
Versions: 1 2 3 4 5 6 7 8 9 10 11 12 13 14 15 16 17 18 19 20 21 22 23 24 25 26 27
415
FTUS44 KFWD 132102 AAA
TAFDAL
TAF AMD
KDAL 132102Z 1321/1418 25015KT P6SM FEW300
     FM140400 32005KT P6SM FEW250
     FM141200 36013KT P6SM SCT250=

USA.gov is the U.S. government's official web portal to all federal, state and local government web resources and services.